Time,TemperatureF,DewpointF,PressureIn,WindDirection,WindDirectionDegrees,WindSpeedMPH,WindSpeedGustMPH,Humidity,HourlyPrecipIn,Conditions,Clouds,dailyrainin,SoftwareType,DateUTC
2013-03-28 00:12:00,36.9,35.2,30.01,SSE,157,0.0,0.0,94,0.00,,,0.00,meteobridge,2013-03-28 07:12:00,
2013-03-28 00:27:00,36.3,34.7,30.01,SSE,157,0.0,0.0,94,0.00,,,0.00,meteobridge,2013-03-28 07:27:00,
2013-03-28 00:42:00,36.3,34.5,30.01,SSE,157,0.0,0.0,93,0.00,,,0.00,meteobridge,2013-03-28 07:42:00,
2013-03-28 00:58:00,36.1,34.5,30.01,SSE,157,0.0,0.0,94,0.00,,,0.00,meteobridge,2013-03-28 07:58:00,
2013-03-28 01:13:00,36.3,35.1,30.01,SSE,157,0.0,0.0,95,0.00,,,0.00,meteobridge,2013-03-28 08:13:00,
2013-03-28 01:28:00,36.3,34.7,30.01,SSE,157,0.0,0.0,94,0.00,,,0.00,meteobridge,2013-03-28 08:28:00,
2013-03-28 01:44:00,36.1,34.5,30.02,SSE,157,0.0,0.0,94,0.00,,,0.00,meteobridge,2013-03-28 08:44:00,
2013-03-28 01:59:00,36.0,34.3,30.02,SSE,157,0.0,0.0,94,0.00,,,0.00,meteobridge,2013-03-28 08:59:00,
2013-03-28 02:14:00,36.3,35.1,30.01,SSE,157,0.0,0.0,95,0.00,,,0.00,meteobridge,2013-03-28 09:14:00,
2013-03-28 02:29:00,36.7,35.1,30.02,SSE,157,0.0,0.0,94,0.00,,,0.00,meteobridge,2013-03-28 09:29:00,
2013-03-28 02:44:00,36.7,35.1,30.02,SSE,157,0.0,0.0,94,0.00,,,0.00,meteobridge,2013-03-28 09:44:00,
2013-03-28 02:59:00,37.9,36.1,30.02,East,82,0.0,0.0,93,0.00,,,0.00,meteobridge,2013-03-28 09:59:00,
2013-03-28 03:15:00,37.4,35.6,30.02,East,82,0.0,0.0,93,0.00,,,0.00,meteobridge,2013-03-28 10:15:00,
2013-03-28 03:30:00,38.5,36.9,30.02,ENE,57,0.0,0.0,94,0.00,,,0.00,meteobridge,2013-03-28 10:30:00,
2013-03-28 03:45:00,38.7,36.9,30.02,NE,47,0.0,0.0,93,0.00,,,0.00,meteobridge,2013-03-28 10:45:00,
2013-03-28 04:00:00,36.9,34.5,30.02,South,181,0.0,0.0,91,0.00,,,0.00,meteobridge,2013-03-28 11:00:00,
2013-03-28 04:15:00,35.6,33.8,30.02,South,181,0.0,0.0,93,0.00,,,0.00,meteobridge,2013-03-28 11:15:00,
2013-03-28 04:31:00,35.1,33.8,30.02,South,181,0.0,0.0,95,0.00,,,0.00,meteobridge,2013-03-28 11:31:00,
2013-03-28 04:46:00,34.9,33.8,30.02,South,181,0.0,0.0,96,0.00,,,0.00,meteobridge,2013-03-28 11:46:00,
2013-03-28 05:16:00,34.5,33.4,30.03,South,181,0.0,0.0,96,0.00,,,0.00,meteobridge,2013-03-28 12:16:00,
2013-03-28 05:31:00,35.1,34.3,30.04,South,181,0.0,0.0,97,0.00,,,0.00,meteobridge,2013-03-28 12:31:00,
2013-03-28 05:46:00,34.2,33.1,30.04,South,181,0.0,0.0,96,0.00,,,0.00,meteobridge,2013-03-28 12:46:00,
2013-03-28 06:02:00,34.9,34.2,30.04,South,181,0.0,0.0,97,0.00,,,0.00,meteobridge,2013-03-28 13:02:00,
2013-03-28 06:17:00,35.4,34.7,30.04,NE,56,0.0,0.9,97,0.00,,,0.00,meteobridge,2013-03-28 13:17:00,
2013-03-28 06:32:00,35.1,33.8,30.04,NE,56,0.0,0.0,95,0.00,,,0.00,meteobridge,2013-03-28 13:32:00,
2013-03-28 06:47:00,34.0,32.7,30.04,NE,56,0.0,0.0,95,0.00,,,0.00,meteobridge,2013-03-28 13:47:00,
2013-03-28 07:03:00,33.4,32.4,30.05,NE,56,0.0,0.0,96,0.00,,,0.00,meteobridge,2013-03-28 14:03:00,
2013-03-28 07:18:00,33.1,32.0,30.06,NE,56,0.0,0.0,96,0.00,,,0.00,meteobridge,2013-03-28 14:18:00,
2013-03-28 07:33:00,34.0,33.3,30.05,NE,56,0.0,0.0,97,0.00,,,0.00,meteobridge,2013-03-28 14:33:00,
2013-03-28 07:48:00,35.4,34.7,30.06,ENE,57,0.0,0.0,97,0.00,,,0.00,meteobridge,2013-03-28 14:48:00,
2013-03-28 08:03:00,37.0,36.0,30.06,ENE,57,0.0,0.0,96,0.00,,,0.00,meteobridge,2013-03-28 15:03:00,
2013-03-28 08:18:00,39.0,37.2,30.06,SSE,162,0.0,0.0,93,0.00,,,0.00,meteobridge,2013-03-28 15:18:00,
2013-03-28 08:33:00,39.9,37.2,30.06,SSE,162,0.0,0.0,90,0.00,,,0.00,meteobridge,2013-03-28 15:33:00,
2013-03-28 08:48:00,40.6,37.6,30.07,NE,53,0.0,0.9,89,0.00,,,0.00,meteobridge,2013-03-28 15:48:00,
2013-03-28 09:03:00,41.7,38.1,30.07,ENE,73,0.0,0.9,87,0.00,,,0.00,meteobridge,2013-03-28 16:03:00,
2013-03-28 09:19:00,42.3,38.1,30.07,ENE,68,0.0,0.9,85,0.00,,,0.00,meteobridge,2013-03-28 16:19:00,
2013-03-28 09:34:00,42.6,38.7,30.08,ESE,110,0.0,0.0,86,0.00,,,0.00,meteobridge,2013-03-28 16:34:00,
2013-03-28 09:49:00,43.2,39.0,30.08,NNW,337,0.0,0.9,85,0.00,,,0.00,meteobridge,2013-03-28 16:49:00,
2013-03-28 10:05:00,43.5,39.4,30.08,ESE,122,0.0,0.9,85,0.00,,,0.00,meteobridge,2013-03-28 17:05:00,
2013-03-28 10:20:00,44.4,39.6,30.08,NNE,18,0.0,0.9,83,0.00,,,0.00,meteobridge,2013-03-28 17:20:00,
2013-03-28 10:35:00,46.0,40.5,30.08,SE,125,0.0,0.0,81,0.00,,,0.00,meteobridge,2013-03-28 17:35:00,
2013-03-28 10:50:00,47.1,41.0,30.08,East,95,0.0,2.0,79,0.00,,,0.00,meteobridge,2013-03-28 17:50:00,
2013-03-28 11:05:00,48.4,41.2,30.08,ESE,115,0.0,0.0,76,0.00,,,0.00,meteobridge,2013-03-28 18:05:00,
2013-03-28 11:20:00,49.3,41.7,30.08,ESE,119,0.9,0.9,75,0.00,,,0.00,meteobridge,2013-03-28 18:20:00,
2013-03-28 11:35:00,52.0,42.4,30.07,South,188,0.0,2.0,70,0.00,,,0.00,meteobridge,2013-03-28 18:35:00,
2013-03-28 11:50:00,53.4,43.2,30.07,SE,133,0.9,2.9,68,0.00,,,0.00,meteobridge,2013-03-28 18:50:00,
2013-03-28 12:06:00,54.1,43.0,30.07,East,91,0.0,0.9,66,0.00,,,0.00,meteobridge,2013-03-28 19:06:00,
2013-03-28 12:36:00,55.8,43.3,30.06,NW,321,0.0,2.0,63,0.00,,,0.00,meteobridge,2013-03-28 19:36:00,
2013-03-28 12:51:00,56.1,43.3,30.06,ESE,113,0.0,0.9,62,0.00,,,0.00,meteobridge,2013-03-28 19:51:00,
2013-03-28 13:06:00,56.1,43.3,30.06,NNE,29,0.0,0.0,62,0.00,,,0.00,meteobridge,2013-03-28 20:06:00,
2013-03-28 13:21:00,57.6,43.0,30.06,NE,52,0.0,0.0,58,0.00,,,0.00,meteobridge,2013-03-28 20:21:00,
2013-03-28 13:37:00,58.5,43.3,30.05,ENE,58,0.9,0.9,57,0.00,,,0.00,meteobridge,2013-03-28 20:37:00,
2013-03-28 13:52:00,58.6,41.5,30.05,North,7,0.9,0.9,53,0.00,,,0.00,meteobridge,2013-03-28 20:52:00,
2013-03-28 14:07:00,57.9,41.4,30.05,ENE,76,0.9,0.9,54,0.00,,,0.00,meteobridge,2013-03-28 21:07:00,
2013-03-28 14:22:00,57.7,41.2,30.04,SSE,166,0.9,0.9,54,0.00,,,0.00,meteobridge,2013-03-28 21:22:00,
2013-03-28 14:37:00,59.2,42.6,30.04,ESE,116,0.0,0.9,54,0.00,,,0.00,meteobridge,2013-03-28 21:37:00,
2013-03-28 14:52:00,59.4,41.2,30.03,South,187,0.0,0.9,51,0.00,,,0.00,meteobridge,2013-03-28 21:52:00,
2013-03-28 15:07:00,60.1,40.8,30.03,ESE,123,0.0,0.0,49,0.00,,,0.00,meteobridge,2013-03-28 22:07:00,
2013-03-28 15:22:00,60.4,40.6,30.03,ESE,105,0.0,0.9,48,0.00,,,0.00,meteobridge,2013-03-28 22:22:00,
2013-03-28 15:37:00,60.1,39.7,30.02,SSE,153,0.0,0.0,47,0.00,,,0.00,meteobridge,2013-03-28 22:37:00,
2013-03-28 15:52:00,60.6,39.2,30.02,WNW,298,0.0,0.9,45,0.00,,,0.00,meteobridge,2013-03-28 22:52:00,
2013-03-28 16:08:00,59.7,39.4,30.02,West,266,0.0,0.9,47,0.00,,,0.00,meteobridge,2013-03-28 23:08:00,
2013-03-28 16:23:00,58.8,39.2,30.03,NE,47,0.0,0.9,48,0.00,,,0.00,meteobridge,2013-03-28 23:23:00,
2013-03-28 16:38:00,58.3,39.7,30.03,East,83,0.0,0.9,50,0.00,,,0.00,meteobridge,2013-03-28 23:38:00,
2013-03-28 16:53:00,56.8,41.7,30.03,SW,225,0.0,0.9,57,0.00,,,0.00,meteobridge,2013-03-28 23:53:00,
2013-03-28 17:08:00,56.3,41.2,30.03,SSE,164,0.0,0.0,57,0.00,,,0.00,meteobridge,2013-03-29 00:08:00,
2013-03-28 17:23:00,55.8,41.2,30.03,SSE,166,0.0,0.0,58,0.00,,,0.00,meteobridge,2013-03-29 00:23:00,
2013-03-28 17:39:00,55.8,42.1,30.03,SSE,166,0.0,0.0,60,0.00,,,0.00,meteobridge,2013-03-29 00:39:00,
2013-03-28 17:54:00,55.6,42.3,30.03,SSE,166,0.0,0.0,61,0.00,,,0.00,meteobridge,2013-03-29 00:54:00,
2013-03-28 18:09:00,55.6,41.0,30.03,SSE,166,0.0,0.0,58,0.00,,,0.00,meteobridge,2013-03-29 01:09:00,
2013-03-28 18:24:00,55.2,41.2,30.03,SSE,166,0.0,0.0,59,0.00,,,0.00,meteobridge,2013-03-29 01:24:00,
2013-03-28 18:39:00,54.7,41.9,30.03,SSE,166,0.0,0.0,62,0.00,,,0.00,meteobridge,2013-03-29 01:39:00,
2013-03-28 18:54:00,53.8,41.9,30.03,SSE,166,0.0,0.0,64,0.00,,,0.00,meteobridge,2013-03-29 01:54:00,
2013-03-28 19:10:00,52.5,41.5,30.04,SSE,166,0.0,0.0,66,0.00,,,0.00,meteobridge,2013-03-29 02:10:00,
2013-03-28 19:25:00,51.4,41.5,30.04,SSE,166,0.0,0.0,69,0.00,,,0.00,meteobridge,2013-03-29 02:25:00,
2013-03-28 19:41:00,50.9,41.9,30.04,SSE,166,0.0,0.0,71,0.00,,,0.00,meteobridge,2013-03-29 02:41:00,
2013-03-28 19:56:00,50.4,42.4,30.04,SSE,166,0.0,0.0,74,0.00,,,0.00,meteobridge,2013-03-29 02:56:00,
2013-03-28 20:11:00,50.2,42.6,30.05,SSE,166,0.0,0.0,75,0.00,,,0.00,meteobridge,2013-03-29 03:11:00,
2013-03-28 20:26:00,49.8,43.0,30.05,SSE,166,0.0,0.0,77,0.00,,,0.00,meteobridge,2013-03-29 03:26:00,
2013-03-28 20:42:00,49.5,42.6,30.05,SSE,166,0.0,0.0,77,0.00,,,0.00,meteobridge,2013-03-29 03:42:00,
2013-03-28 20:57:00,49.1,42.3,30.06,SSE,166,0.0,0.0,77,0.00,,,0.00,meteobridge,2013-03-29 03:57:00,
2013-03-28 21:12:00,48.7,41.5,30.06,SSE,166,0.0,0.0,76,0.00,,,0.00,meteobridge,2013-03-29 04:12:00,
2013-03-28 21:27:00,48.7,42.3,30.07,SSE,166,0.0,0.0,78,0.00,,,0.00,meteobridge,2013-03-29 04:27:00,
2013-03-28 21:42:00,48.7,42.3,30.07,SSE,166,0.0,0.0,78,0.00,,,0.00,meteobridge,2013-03-29 04:42:00,
2013-03-28 21:57:00,48.4,42.3,30.07,SSE,166,0.0,0.0,79,0.00,,,0.00,meteobridge,2013-03-29 04:57:00,
2013-03-28 22:13:00,47.5,41.5,30.07,SSE,166,0.0,0.0,80,0.00,,,0.00,meteobridge,2013-03-29 05:13:00,
2013-03-28 22:28:00,47.1,41.5,30.07,SSE,166,0.0,0.0,81,0.00,,,0.00,meteobridge,2013-03-29 05:28:00,
2013-03-28 22:43:00,46.6,41.0,30.08,SSE,166,0.0,0.0,81,0.00,,,0.00,meteobridge,2013-03-29 05:43:00,
2013-03-28 22:58:00,46.2,41.0,30.08,SSE,166,0.0,0.0,82,0.00,,,0.00,meteobridge,2013-03-29 05:58:00,
2013-03-28 23:13:00,45.1,40.6,30.08,SSE,166,0.0,0.0,84,0.00,,,0.00,meteobridge,2013-03-29 06:13:00,
2013-03-28 23:28:00,44.8,40.3,30.09,SSE,166,0.0,0.0,84,0.00,,,0.00,meteobridge,2013-03-29 06:28:00,
2013-03-28 23:43:00,44.1,40.1,30.09,SSE,166,0.0,0.0,86,0.00,,,0.00,meteobridge,2013-03-29 06:43:00,
2013-03-28 23:58:00,43.5,39.9,30.09,SSE,166,0.0,0.0,87,0.00,,,0.00,meteobridge,2013-03-29 06:58:00,